Regional Weather Roundup
Issued by NWS

Home | Current Version | Previous Version | Text Only | Print | Product List | Glossary Off
Versions: 1 2 3 4 5 6 7 8 9 10 11 12 13 14 15 16 17 18 19 20 21 22 23 24 25 26 27 28 29 30 31 32 33 34 35 36 37 38 39 40 41 42 43 44 45 46 47 48 49 50

000
ASUS43 KOAX 292110
RWRNE

WEATHER ROUNDUP FOR NEBRASKA
NATIONAL WEATHER SERVICE OMAHA NE
400 PM CDT MON SEP 29 2014

NOTES: SATELLITE DATA IS BEING USED TO AUGMENT CLOUD COVER ABOVE
       12000 FEET.
       "FAIR" INDICATES FEW OR NO CLOUDS BELOW 12,000 FEET WITH NO
       SIGNIFICANT WEATHER AND/OR OBSTRUCTIONS TO VISIBILITY.

  * THESE STATIONS DO NOT REPORT WEATHER SUCH AS RAIN...SNOW OR FOG.

NEZ001>004-019>022-054>056-292200-
NEBRASKA PANHANDLE

CITY           SKY/WX    TMP DP  RH WIND       PRES   REMARKS
SCOTTSBLUFF    CLOUDY    64  56  75 E7        29.92F
ALLIANCE       CLOUDY    63  59  87 E7        29.92F
CHADRON        CLOUDY    54  53  97 N8        29.95F
KIMBALL        CLOUDY    66  55  69 E10       29.90F
SIDNEY         CLOUDY    69  57  65 NE9       29.90F
$$

NEZ057>060-069>072-079>082-292200-
SOUTHWEST NEBRASKA

CITY           SKY/WX    TMP DP  RH WIND       PRES   REMARKS
NORTH PLATTE   CLOUDY    82  51  34 SE16G28   29.88F
IMPERIAL       MOSUNNY   81  54  39 SE25G35   29.86F
LEXINGTON      MOSUNNY   83  54  36 S17G28    29.92F
MCCOOK         CLOUDY    81  52  36 SE16G29   29.89F
OGALLALA       CLOUDY    78  56  48 SE15G23   29.86F
$$

NEZ005>010-023>029-035>040-094-292200-
NORTH CENTRAL NEBRASKA

CITY           SKY/WX    TMP DP  RH WIND       PRES   REMARKS
VALENTINE      CLOUDY    70  57  63 E13       29.94F
AINSWORTH      CLOUDY    73  59  62 E13G18    29.94F
BROKEN BOW     PTSUNNY   82  54  37 S17G26    29.93F
O`NEILL        MOSUNNY   79  63  58 E15       29.95F
ORD            CLOUDY    81  54  39 SE12      29.93F
THEDFORD       PTSUNNY   80  54  40 SE18G26   29.92F
$$

NEZ041-046>049-061>064-073>077-083>087-292200-
SOUTH CENTRAL NEBRASKA

CITY           SKY/WX    TMP DP  RH WIND       PRES   REMARKS
GRAND ISLAND   SUNNY     83  52  34 S13       29.96F
AURORA         MOSUNNY   82  47  29 S13       29.96F
HASTINGS       MOSUNNY   81  48  31 S13G20    29.95F
HEBRON         MOSUNNY   84  46  26 SE12G17   29.96F
HOLDREGE       PTSUNNY   79  53  40 SE16      29.93F
KEARNEY *      MOSUNNY   82  54  36 SE16G24   29.95F
YORK           MOSUNNY   82  55  39 SE9G16    29.97F
$$

NEZ011>018-030>034-042>045-292200-
NORTHEAST NEBRASKA

CITY           SKY/WX    TMP DP  RH WIND       PRES   REMARKS
NORFOLK        SUNNY     83  56  39 SE13      29.96F
ALBION         SUNNY     80  52  37 S12G17    29.96F
BLAIR          SUNNY     84  55  36 S5        29.98F
COLUMBUS *     SUNNY     82  57  42 SE7       29.97F
FREMONT        SUNNY     84  55  36 SE6       29.98F
TEKAMAH        PTSUNNY   86  55  34 W5        29.96F
WAYNE          PTSUNNY   84  57  39 S6        29.97F
$$

NEZ050>053-065>068-078-088>093-292200-
SOUTHEAST NEBRASKA

CITY           SKY/WX    TMP DP  RH WIND       PRES   REMARKS
LINCOLN        MOSUNNY   84  57  39 S10       29.97F
OMAHA EPPLEY   MOSUNNY   83  57  41 S5        29.97F
BEATRICE       MOSUNNY   83  56  39 S9        29.97F
FALLS CITY     MOSUNNY   83  54  36 CALM      29.97F
NEBRASKA CITY  MOSUNNY   82  49  31 SE6       29.98F
PLATTSMOUTH    SUNNY     83  53  35 SE7       29.98F
$$

NEZ044-045-051>053-067-292200-
OMAHA AREA

CITY           SKY/WX    TMP DP  RH WIND       PRES   REMARKS
OMAHA EPPLEY   MOSUNNY   83  57  41 S5        29.97F
BLAIR          SUNNY     84  55  36 S5        29.98F
FREMONT        SUNNY     84  55  36 SE6       29.98F
MILLARD        SUNNY     83  60  45 SE5       29.97F
OFFUTT AFB     MOSUNNY   83  59  43 S5        29.97F
PLATTSMOUTH    SUNNY     83  53  35 SE7       29.98F
WAHOO          FAIR      83  53  35 SE7       29.97F
$$



USA.gov is the U.S. government's official web portal to all federal, state and local government web resources and services.